Algona, IA

12:07 PM CDT on April 27, 2017 (GMT -0500)
Algona Municipal

Weather History for KAXA - March, 2013

Change the Weather History Date:

Sunday, March 10, 2013

  Actual Average Record
Temperature  
Mean Temperature 30 °F -  
Max Temperature 33 °F 31 °F 64 °F (2012)
Min Temperature 26 °F 18 °F 0 °F (1998)
Degree Days  
Heating Degree Days 36    
Moisture  
Dew Point 31 °F    
Average Humidity 100    
Maximum Humidity 100    
Minimum Humidity 93    
Precipitation  
Precipitation 0.15 in - - ()
Sea Level Pressure  
Sea Level Pressure 29.78 in    
Wind  
Wind Speed 20 mph (North)    
Max Wind Speed 29 mph    
Max Gust Speed 40 mph    
Visibility 2 miles    
Events Rain , Snow    
Averages and records for this station are not official NWS values.
T = Trace of Precipitation, MM = Missing Value Source: NWS Daily Summary

Daily Weather History Graph

Daily Weather History Graph

Search for Another Location

Airport or City:

Trip Planner

Search our weather history database for the weather conditions in past years. The results will help you decide how hot, cold, wet, or windy it might be!

Date:

Astronomy

Mar. 10, 2013 Rise Set
Actual Time 7:37 AM CDT 7:17 PM CDT
Civil Twilight 7:09 AM CDT 7:46 PM CDT
Nautical Twilight 6:36 AM CDT 8:19 PM CDT
Astronomical Twilight 6:02 AM CDT 8:52 PM CDT
Moon 6:38 AM CDT (3/10) 6:26 PM CDT (3/10)
Length of Visible Light 12h 37m
Length of Day
11h 40m
Waning Crescent, 2% of the Moon is Illuminated
Mar 10
Waning Crescent
Mar 11
New
Mar 19
First Quarter
Mar 27
Full
Apr 2
Last Quarter

Hourly Weather History & Observations

Time (CDT) Temp. Windchill Dew Point Humidity Pressure Visibility Wind Dir Wind Speed Gust Speed Precip Events Conditions
12:15 AM 33.8 °F 23.5 °F 33.8 °F 100% 29.72 in 9.0 mi North 16.1 mph 21.9 mph N/A   Overcast
12:35 AM 33.8 °F 23.5 °F 33.8 °F 100% 29.71 in 10.0 mi North 16.1 mph 23.0 mph N/A   Overcast
12:55 AM 33.8 °F 23.2 °F 33.8 °F 100% 29.72 in 10.0 mi North 17.3 mph 24.2 mph N/A   Overcast
1:15 AM 33.8 °F 23.2 °F 33.8 °F 100% 29.72 in 10.0 mi North 17.3 mph - N/A   Overcast
1:35 AM 33.8 °F 23.5 °F 33.8 °F 100% 29.74 in 8.0 mi North 16.1 mph 21.9 mph N/A   Overcast
1:55 AM 33.8 °F 23.5 °F 33.8 °F 100% 29.74 in 5.0 mi North 16.1 mph 26.5 mph N/A   Overcast
3:15 AM 33.8 °F 22.8 °F 33.8 °F 100% 29.73 in 5.0 mi North 18.4 mph - N/A   Light Drizzle
3:35 AM 33.8 °F 21.9 °F 33.8 °F 100% 29.69 in 2.5 mi North 21.9 mph 29.9 mph N/A Rain Light Rain
3:55 AM 33.8 °F 23.2 °F 33.8 °F 100% 29.71 in 3.0 mi North 17.3 mph 27.6 mph N/A   Light Drizzle
4:15 AM 33.8 °F 22.5 °F 33.8 °F 100% 29.72 in 4.0 mi North 19.6 mph 29.9 mph N/A   Light Drizzle
4:35 AM 33.8 °F 22.2 °F 33.8 °F 100% 29.71 in 2.5 mi North 20.7 mph - N/A Rain Rain
4:55 AM 33.8 °F 22.8 °F 33.8 °F 100% 29.74 in 2.5 mi North 18.4 mph 26.5 mph 0.02 in   Overcast
5:15 AM 33.8 °F 22.5 °F 33.8 °F 100% 29.73 in 3.0 mi North 19.6 mph 29.9 mph N/A Rain Light Rain
5:35 AM 33.8 °F 22.8 °F 33.8 °F 100% 29.75 in 3.0 mi North 18.4 mph 27.6 mph N/A Rain Light Rain
5:55 AM 33.8 °F 22.2 °F 33.8 °F 100% 29.76 in 4.0 mi North 20.7 mph 28.8 mph N/A Rain Light Rain
6:15 AM 33.8 °F 23.2 °F 33.8 °F 100% 29.77 in 4.0 mi North 17.3 mph 25.3 mph N/A   Light Drizzle
7:15 AM 33.8 °F 21.9 °F 33.8 °F 100% 29.78 in 7.0 mi North 21.9 mph 29.9 mph N/A   Overcast
7:55 AM 33.8 °F 21.9 °F 33.8 °F 100% 29.80 in 6.0 mi North 21.9 mph 27.6 mph N/A   Light Drizzle
8:15 AM 33.8 °F 22.5 °F 32.0 °F 93% 29.82 in 4.0 mi North 19.6 mph 34.5 mph N/A   Light Drizzle
8:35 AM 32.0 °F 19.2 °F 32.0 °F 100% 29.81 in 1.8 mi North 23.0 mph 33.4 mph N/A Rain Rain
8:55 AM 32.0 °F 19.2 °F 32.0 °F 100% 29.80 in 0.8 mi North 23.0 mph 35.7 mph 0.01 in   Overcast
9:15 AM 32.0 °F 19.8 °F 32.0 °F 100% 29.83 in 1.0 mi North 20.7 mph 29.9 mph N/A Rain Light Rain
9:35 AM 32.0 °F 18.9 °F 32.0 °F 100% 29.82 in 1.0 mi North 24.2 mph 32.2 mph N/A Rain Rain
9:55 AM 32.0 °F 20.1 °F 32.0 °F 100% 29.84 in 1.5 mi NNE 19.6 mph 32.2 mph 0.01 in Rain Light Rain
10:15 AM 32.0 °F 20.1 °F 32.0 °F 100% 29.84 in 2.0 mi North 19.6 mph 28.8 mph N/A   Overcast
10:35 AM 32.0 °F 19.5 °F 32.0 °F 100% 29.83 in 1.2 mi North 21.9 mph 27.6 mph N/A Rain Rain
10:55 AM 32.0 °F 18.9 °F 32.0 °F 100% 29.80 in 1.8 mi NNE 24.2 mph 32.2 mph N/A Rain Light Rain
11:15 AM 32.0 °F 18.6 °F 32.0 °F 100% 29.83 in 1.5 mi North 25.3 mph 36.8 mph N/A Rain Rain
11:35 AM 32.0 °F 21.6 °F 32.0 °F 100% 29.84 in 2.5 mi NNE 15.0 mph 27.6 mph N/A Rain Light Rain
11:55 AM 32.0 °F 19.8 °F 32.0 °F 100% 29.82 in 1.8 mi North 20.7 mph 27.6 mph N/A   Overcast
12:15 PM 32.0 °F 19.8 °F 32.0 °F 100% 29.81 in 2.0 mi North 20.7 mph 28.8 mph N/A Rain Light Rain
12:35 PM 32.0 °F 19.2 °F 32.0 °F 100% 29.80 in 2.5 mi North 23.0 mph 29.9 mph N/A Rain Light Rain
12:55 PM 32.0 °F 20.1 °F 32.0 °F 100% 29.81 in 3.0 mi North 19.6 mph 29.9 mph N/A   Light Drizzle
1:15 PM 32.0 °F 20.8 °F 32.0 °F 100% 29.80 in 2.5 mi North 17.3 mph 29.9 mph N/A   Light Drizzle
1:35 PM 32.0 °F 20.1 °F 32.0 °F 100% 29.79 in 3.0 mi North 19.6 mph 26.5 mph N/A   Light Drizzle
1:55 PM 32.0 °F 20.5 °F 32.0 °F 100% 29.80 in 3.0 mi North 18.4 mph 26.5 mph N/A   Overcast
2:15 PM 32.0 °F 20.1 °F 32.0 °F 100% 29.80 in 1.8 mi North 19.6 mph 26.5 mph N/A Rain Rain
2:35 PM 32.0 °F 19.5 °F 32.0 °F 100% 29.80 in 0.5 mi North 21.9 mph 27.6 mph N/A   Overcast
2:55 PM - - - N/A% 29.78 in 0.2 mi North 21.9 mph 33.4 mph 0.01 in   Overcast
3:15 PM - - - N/A% 29.76 in 0.5 mi North 23.0 mph 31.1 mph N/A   Overcast
3:35 PM 30.2 °F 16.5 °F 30.2 °F 100% 29.74 in 0.5 mi North 24.2 mph 32.2 mph N/A   Overcast
3:55 PM 30.2 °F 16.2 °F 30.2 °F 100% 29.75 in 0.2 mi North 25.3 mph 36.8 mph 0.02 in   Overcast
4:15 PM 30.2 °F 16.2 °F 30.2 °F 100% 29.74 in 0.2 mi North 25.3 mph 38.0 mph N/A   Overcast
4:35 PM 30.2 °F 16.5 °F 30.2 °F 100% 29.75 in 0.2 mi North 24.2 mph 35.7 mph N/A   Mostly Cloudy
4:55 PM 30.2 °F 16.2 °F 30.2 °F 100% 29.77 in 0.2 mi North 25.3 mph 34.5 mph N/A Snow Heavy Snow
5:15 PM 30.2 °F 16.5 °F 30.2 °F 100% 29.77 in 0.2 mi North 24.2 mph 38.0 mph N/A Snow Light Snow
5:35 PM 30.2 °F 16.8 °F 30.2 °F 100% 29.78 in 0.2 mi North 23.0 mph 36.8 mph N/A Snow Light Snow
5:55 PM 30.2 °F 16.5 °F 30.2 °F 100% 29.79 in 0.2 mi North 24.2 mph 33.4 mph 0.02 in Snow Snow
6:15 PM 30.2 °F 16.5 °F 30.2 °F 100% 29.78 in 0.2 mi North 24.2 mph 36.8 mph N/A Snow Light Snow
6:35 PM 30.2 °F 16.5 °F 30.2 °F 100% 29.78 in 0.2 mi North 24.2 mph 31.1 mph N/A Snow Light Snow
6:55 PM 30.2 °F 15.4 °F 30.2 °F 100% 29.78 in 0.2 mi North 28.8 mph 35.7 mph 0.02 in Snow Light Snow
7:15 PM 30.2 °F 16.2 °F 30.2 °F 100% 29.79 in 0.2 mi North 25.3 mph 33.4 mph N/A Snow Light Snow
7:35 PM 28.4 °F 13.8 °F 28.4 °F 100% 29.79 in 0.2 mi North 25.3 mph 36.8 mph N/A Snow Light Snow
7:55 PM 28.4 °F 13.3 °F 28.4 °F 100% 29.78 in 0.2 mi North 27.6 mph 40.3 mph 0.02 in Snow Light Snow
8:15 PM 28.4 °F 13.5 °F 28.4 °F 100% 29.78 in 0.2 mi North 26.5 mph 39.1 mph N/A Snow Snow
8:35 PM 28.4 °F 13.3 °F 28.4 °F 100% 29.78 in 0.2 mi North 27.6 mph 34.5 mph N/A Snow Snow
9:15 PM 28.4 °F 14.1 °F 28.4 °F 100% 29.79 in 0.2 mi North 24.2 mph 31.1 mph N/A Snow Snow
9:35 PM 28.4 °F 14.7 °F 28.4 °F 100% 29.79 in 0.2 mi North 21.9 mph 33.4 mph N/A Snow Light Snow
9:55 PM 28.4 °F 14.1 °F 28.4 °F 100% 29.79 in 0.2 mi North 24.2 mph 33.4 mph 0.01 in Snow Snow
10:15 PM 28.4 °F 13.8 °F 28.4 °F 100% 29.79 in 0.2 mi North 25.3 mph 33.4 mph N/A Snow Light Snow
10:35 PM 28.4 °F 14.1 °F 28.4 °F 100% 29.80 in 0.2 mi North 24.2 mph 33.4 mph N/A Snow Light Snow
10:55 PM - - - N/A% 29.80 in 0.5 mi North 27.6 mph 33.4 mph 0.01 in   Unknown
11:15 PM 26.6 °F 11.4 °F 26.6 °F 100% 29.80 in 0.5 mi North 25.3 mph 34.5 mph N/A Snow Light Snow
11:35 PM 26.6 °F 11.1 °F 26.6 °F 100% 29.80 in 0.5 mi North 26.5 mph 32.2 mph N/A Snow Light Snow
11:55 PM 26.6 °F 11.7 °F 26.6 °F 100% 29.80 in 0.8 mi North 24.2 mph 34.5 mph N/A Snow Light Snow
12:15 AM 26.6 °F 11.7 °F 26.6 °F 100% 29.79 in 0.8 mi North 24.2 mph 32.2 mph N/A Snow Light Snow
12:35 AM 26.6 °F 11.1 °F 26.6 °F 100% 29.79 in 1.0 mi North 26.5 mph 33.4 mph N/A Snow Light Snow
12:55 AM 26.6 °F 12.0 °F 26.6 °F 100% 29.79 in 1.0 mi North 23.0 mph 32.2 mph N/A Snow Light Snow